Weather reports worldwide

Advertisment
Braemar, United Kingdom (99089): temperature & dewpoint: 12.01.2018 13:00:00 - 18.01.2018 13:00:00 (GMT)Braemar, United Kingdom (99089): temperature -20cm & temperature -100cm: 12.01.2018 13:00:00 - 18.01.2018 13:00:00 (GMT)Braemar, United Kingdom (99089): precipitation: 12.01.2018 13:00:00 - 18.01.2018 13:00:00 (GMT)
Date & Time tt [°C] td [°C] tt -20cm [°C] tt -100cm [°C] rr [mm]
18.01.2018 13:00:00 -0,1 -4,1 - - 0,0
18.01.2018 12:00:00 0,7 -3,5 - - 0,0
18.01.2018 11:00:00 -0,8 -4,0 - - 0,0
18.01.2018 10:00:00 -0,6 -2,8 - - 0,0
18.01.2018 09:00:00 -1,1 -3,1 1,2 3,0 0,0
18.01.2018 08:00:00 -0,7 -2,7 - - 0,0
18.01.2018 07:00:00 -1,5 -2,5 - - 0,0
18.01.2018 06:00:00 -4,3 -5,8 - - 0,0
18.01.2018 05:00:00 -4,6 -6,0 - - 0,0
18.01.2018 04:00:00 -4,3 -5,6 - - 0,0
18.01.2018 03:00:00 -5,1 -5,7 - - 0,0
18.01.2018 02:00:00 -5,1 -5,9 - - 0,0
18.01.2018 01:00:00 -2,7 -5,0 - - 0,0
18.01.2018 00:00:00 -1,5 -3,6 - - 0,0
17.01.2018 23:00:00 -1,0 -3,3 - - 0,0
17.01.2018 22:00:00 -1,3 -3,7 - - 0,0
17.01.2018 21:00:00 -1,1 -3,7 - - 0,0
17.01.2018 20:00:00 -0,8 -3,8 - - 0,0
17.01.2018 19:00:00 -0,5 -3,3 - - 0,0
17.01.2018 18:00:00 -0,6 -2,3 - - 0,0
17.01.2018 17:00:00 -0,3 -1,6 - - 0,0
17.01.2018 16:00:00 0,1 -0,5 - - 0,0
17.01.2018 15:00:00 0,2 -0,6 - - 0,0
17.01.2018 14:00:00 0,0 -0,6 - - 0,0
17.01.2018 13:00:00 0,0 -0,4 - - 0,0
17.01.2018 12:00:00 0,2 -1,8 - - 0,0
17.01.2018 11:00:00 0,4 -2,2 - - 0,0
17.01.2018 10:00:00 -0,4 -2,3 - - 0,0
17.01.2018 09:00:00 -1,0 -1,9 1,2 3,2 0,0
17.01.2018 08:00:00 -0,7 -3,5 - - 0,0
17.01.2018 07:00:00 -1,1 -2,2 - - 0,0
17.01.2018 06:00:00 -1,1 -2,6 - - 0,0
17.01.2018 05:00:00 -1,3 -1,7 - - 0,0
17.01.2018 04:00:00 -1,6 -2,2 - - 0,0
17.01.2018 03:00:00 -2,2 -4,9 - - 0,0
17.01.2018 02:00:00 -3,0 -5,3 - - 0,0
17.01.2018 01:00:00 -3,2 -5,2 - - 0,0
17.01.2018 00:00:00 -2,9 -3,8 - - 0,0
16.01.2018 23:00:00 -2,6 -4,5 - - 0,0
16.01.2018 22:00:00 -3,0 -5,0 - - 0,0
16.01.2018 21:00:00 -2,2 -3,5 - - 0,0
16.01.2018 20:00:00 -2,0 -4,3 - - 0,0
16.01.2018 19:00:00 -1,9 -4,0 - - 0,0
16.01.2018 18:00:00 -1,7 -3,8 - - 0,0
16.01.2018 17:00:00 -1,8 -4,0 - - 0,0
16.01.2018 16:00:00 -1,3 -2,6 - - 0,0
16.01.2018 15:00:00 -0,8 -3,5 - - 0,0
16.01.2018 14:00:00 -0,4 -3,2 - - 0,0
16.01.2018 13:00:00 -1,2 -3,1 - - 0,0
16.01.2018 12:00:00 -1,1 -2,7 - - 0,0
16.01.2018 11:00:00 -0,8 -2,8 - - 0,0
16.01.2018 10:00:00 -0,5 -2,8 - - 0,0
16.01.2018 09:00:00 -1,0 -2,6 1,4 3,0 0,0
16.01.2018 08:00:00 -0,8 -3,2 - - 0,0
16.01.2018 07:00:00 -1,4 -3,4 - - 0,0
16.01.2018 06:00:00 -1,1 -3,2 - - 0,0
16.01.2018 05:00:00 -1,1 -2,5 - - 0,0
16.01.2018 04:00:00 -1,2 -2,7 - - 0,0
16.01.2018 03:00:00 -1,5 -2,8 - - 0,0
16.01.2018 02:00:00 -1,3 -2,8 - - 0,0
16.01.2018 01:00:00 -1,1 -3,1 - - 0,0
16.01.2018 00:00:00 -0,7 -1,8 - - 0,0
15.01.2018 23:00:00 -0,1 -1,6 - - 0,0
15.01.2018 22:00:00 0,4 -1,9 - - 0,0
15.01.2018 21:00:00 -0,2 -2,2 - - 0,0
15.01.2018 20:00:00 0,3 -1,7 - - 0,0
15.01.2018 19:00:00 0,2 -1,3 - - 0,0
15.01.2018 18:00:00 0,2 -0,8 - - 0,0
15.01.2018 17:00:00 1,1 -0,5 - - 0,0
15.01.2018 16:00:00 1,6 -1,1 - - 0,0
15.01.2018 15:00:00 2,8 -0,8 - - 0,0
15.01.2018 14:00:00 3,1 -0,3 - - 0,0
15.01.2018 13:00:00 3,2 1,9 - - 0,2
15.01.2018 12:00:00 3,5 0,9 - - 0,0
15.01.2018 11:00:00 3,6 0,9 - - 0,0
15.01.2018 10:00:00 1,1 -0,4 - - 0,0
15.01.2018 09:00:00 2,4 0,3 1,2 3,0 0,0
15.01.2018 08:00:00 3,0 0,9 - - 0,0
15.01.2018 07:00:00 3,8 2,1 - - 0,2
15.01.2018 06:00:00 3,8 2,4 - - 0,2
15.01.2018 05:00:00 4,1 2,7 - - 0,0
15.01.2018 04:00:00 5,2 3,1 - - 0,0
15.01.2018 03:00:00 5,8 3,6 - - 0,0
15.01.2018 02:00:00 5,9 3,9 - - 0,0
15.01.2018 01:00:00 5,4 3,3 - - 0,0
15.01.2018 00:00:00 4,8 3,1 - - 0,2
14.01.2018 23:00:00 4,1 2,7 - - 1,0
14.01.2018 22:00:00 3,8 2,3 - - 2,0
14.01.2018 21:00:00 3,7 2,1 - - 2,2
14.01.2018 20:00:00 3,8 2,0 - - 1,4
14.01.2018 19:00:00 4,1 2,3 - - 2,2
14.01.2018 18:00:00 3,8 2,1 - - 2,2
14.01.2018 17:00:00 4,7 1,7 - - 0,0
14.01.2018 16:00:00 5,0 1,0 - - 0,0
14.01.2018 15:00:00 4,8 1,2 - - 0,0
14.01.2018 14:00:00 4,7 1,2 - - 0,0
14.01.2018 13:00:00 4,6 1,3 - - 0,0
14.01.2018 12:00:00 4,0 1,6 - - 0,0
14.01.2018 11:00:00 3,8 2,0 - - 0,0
14.01.2018 10:00:00 4,1 1,9 - - 0,0
14.01.2018 09:00:00 3,3 2,3 1,0 3,0 0,0
14.01.2018 08:00:00 3,7 2,2 - - 0,0
14.01.2018 07:00:00 3,7 2,1 - - 0,0
14.01.2018 06:00:00 3,3 2,1 - - 0,0
14.01.2018 05:00:00 3,4 1,8 - - 0,2
14.01.2018 04:00:00 3,3 1,6 - - 0,0
14.01.2018 03:00:00 3,4 1,9 - - 0,0
14.01.2018 02:00:00 3,3 2,0 - - -
14.01.2018 01:00:00 3,4 1,4 - - 0,0
14.01.2018 00:00:00 3,3 1,4 - - 0,0
13.01.2018 23:00:00 3,4 1,4 - - 0,0
13.01.2018 22:00:00 3,4 1,3 - - 0,0
13.01.2018 21:00:00 3,4 1,2 - - 0,0
13.01.2018 20:00:00 3,3 1,2 - - 0,0
13.01.2018 19:00:00 3,3 0,8 - - 0,0
13.01.2018 18:00:00 3,2 0,6 - - 0,0
13.01.2018 17:00:00 3,2 0,5 - - 0,0
13.01.2018 16:00:00 3,3 0,3 - - 0,0
13.01.2018 15:00:00 3,6 0,2 - - 0,0
13.01.2018 14:00:00 3,6 0,4 - - 0,0
13.01.2018 13:00:00 3,4 0,7 - - 0,0
13.01.2018 12:00:00 3,9 0,4 - - 0,0
13.01.2018 11:00:00 3,9 0,7 - - 0,0
13.01.2018 10:00:00 3,6 0,3 - - 0,0
13.01.2018 09:00:00 3,5 0,1 1,0 3,2 0,0
13.01.2018 08:00:00 3,6 0,5 - - 0,0
13.01.2018 07:00:00 3,4 0,8 - - 0,0
13.01.2018 06:00:00 3,2 0,3 - - 0,0
13.01.2018 05:00:00 3,3 -0,1 - - 0,0
13.01.2018 04:00:00 3,2 -0,2 - - 0,0
13.01.2018 03:00:00 3,4 -0,5 - - 0,0
13.01.2018 02:00:00 3,3 -0,8 - - 0,0
13.01.2018 01:00:00 3,3 -0,8 - - 0,0
13.01.2018 00:00:00 3,2 -0,3 - - 0,0
12.01.2018 23:00:00 3,0 -0,2 - - 0,0
12.01.2018 22:00:00 3,3 -0,4 - - 0,0
12.01.2018 21:00:00 3,8 0,2 - - 0,0
12.01.2018 20:00:00 4,2 0,3 - - 0,0
12.01.2018 19:00:00 4,2 0,4 - - 0,0
12.01.2018 18:00:00 4,3 0,4 - - 0,0
12.01.2018 17:00:00 4,2 0,3 - - 0,0
12.01.2018 16:00:00 4,3 0,3 - - 0,0
12.01.2018 15:00:00 4,6 0,3 - - 0,0
12.01.2018 14:00:00 4,6 0,4 - - 0,0
12.01.2018 13:00:00 - - - - 0,0

tt = temperature
td = dewpoint
tt -20cm = temperature -20cm
tt -100cm = temperature -100cm
rr = precipitation

Next stations